Olive Branch, MS

10:04 AM CDT on October 23, 2017 (GMT -0500)
Olive Branch

Weather History for KOLV - February, 2014

Change the Weather History Date:

Saturday, February 15, 2014

  Actual Average (KMEM) Record (KMEM)
Temperature  
Mean Temperature 32 °F -  
Max Temperature 42 °F 54 °F 77 °F (1990)
Min Temperature 23 °F 38 °F 11 °F (1905)
Degree Days  
Heating Degree Days 32    
Moisture  
Dew Point 27 °F    
Average Humidity 84    
Maximum Humidity 100    
Minimum Humidity 57    
Precipitation  
Precipitation 0.00 in - - ()
Sea Level Pressure  
Sea Level Pressure 30.12 in    
Wind  
Wind Speed 8 mph (SSW)    
Max Wind Speed 21 mph    
Max Gust Speed 25 mph    
Visibility 10 miles    
Events      
Averages and records for this station are not official NWS values.
T = Trace of Precipitation, MM = Missing Value Source: NWS Daily Summary

Daily Weather History Graph

Daily Weather History Graph

Search for Another Location

Airport or City:

Trip Planner

Search our weather history database for the weather conditions in past years. The results will help you decide how hot, cold, wet, or windy it might be!

Date:

Astronomy

Feb. 15, 2014 Rise Set
Actual Time 6:45 AM CST 5:41 PM CST
Civil Twilight 6:19 AM CST 6:07 PM CST
Nautical Twilight 5:49 AM CST 6:37 PM CST
Astronomical Twilight 5:20 AM CST 7:06 PM CST
Moon 6:37 PM CST (2/15) 6:47 AM CST (2/15)
Length of Visible Light 11h 48m
Length of Day
10h 56m
Waxing Gibbous, 99% of the Moon is Illuminated
Feb 15
Waxing Gibbous
Feb 22
Last Quarter
Mar 1
New
Mar 8
First Quarter
Mar 16
Full

Hourly Weather History & Observations

Time (CST) Temp. Windchill Dew Point Humidity Pressure Visibility Wind Dir Wind Speed Gust Speed Precip Events Conditions
12:15 AM 32.0 °F 22.1 °F 32.0 °F 100% 30.08 in 10.0 mi NNW 13.8 mph 21.9 mph 0.00 in   Overcast
12:35 AM 32.0 °F 23.0 °F 32.0 °F 100% 30.08 in 10.0 mi NNW 11.5 mph 18.4 mph 0.00 in   Overcast
12:55 AM 32.0 °F 22.1 °F 30.2 °F 93% 30.08 in 9.0 mi NNW 13.8 mph 19.6 mph 0.00 in   Overcast
1:15 AM 32.0 °F 22.5 °F 30.2 °F 93% 30.09 in 9.0 mi NNW 12.7 mph 19.6 mph 0.00 in   Overcast
1:35 AM 30.2 °F 17.4 °F 30.2 °F 100% 30.09 in 9.0 mi NNW 20.7 mph 24.2 mph 0.00 in   Overcast
1:55 AM 30.2 °F 18.1 °F 28.4 °F 93% 30.10 in 10.0 mi NNW 18.4 mph 23.0 mph 0.00 in   Overcast
2:15 AM 28.4 °F 15.1 °F 26.6 °F 93% 30.10 in 10.0 mi NNW 20.7 mph 25.3 mph 0.00 in   Mostly Cloudy
2:35 AM 28.4 °F 17.0 °F 26.6 °F 93% 30.10 in 9.0 mi NNW 15.0 mph 19.6 mph 0.00 in   Mostly Cloudy
2:55 AM 28.4 °F - 26.6 °F 93% 30.11 in 10.0 mi Calm Calm - 0.00 in   Scattered Clouds
3:15 AM 28.4 °F - 24.8 °F 86% 30.11 in 9.0 mi Calm Calm - 0.00 in   Clear
3:35 AM 26.6 °F - 24.8 °F 93% 30.12 in 10.0 mi Calm Calm - 0.00 in   Clear
3:55 AM 26.6 °F - 23.0 °F 86% 30.11 in 8.0 mi Calm Calm - 0.00 in   Clear
4:15 AM 26.6 °F - 23.0 °F 86% 30.12 in 10.0 mi Calm Calm - 0.00 in   Clear
4:35 AM 26.6 °F - 23.0 °F 86% 30.12 in 10.0 mi Calm Calm - 0.00 in   Clear
4:55 AM 26.6 °F - 23.0 °F 86% 30.12 in 8.0 mi Calm Calm - 0.00 in   Clear
5:15 AM 24.8 °F - 23.0 °F 93% 30.14 in 10.0 mi Calm Calm - 0.00 in   Clear
5:35 AM 24.8 °F - 23.0 °F 93% 30.15 in 10.0 mi Calm Calm - 0.00 in   Clear
5:55 AM 24.8 °F - 23.0 °F 93% 30.14 in 10.0 mi Calm Calm - 0.00 in   Clear
6:15 AM 23.0 °F - 23.0 °F 100% 30.15 in 9.0 mi Calm Calm - 0.00 in   Clear
6:35 AM 23.0 °F - 23.0 °F 100% 30.16 in 8.0 mi Calm Calm - 0.00 in   Clear
7:50 AM 26.6 °F - 26.6 °F 100% 30.19 in 10.0 mi Calm Calm - N/A   Partly Cloudy
9:50 AM 30.2 °F 23.4 °F 23.0 °F 75% 30.24 in 10.0 mi NNE 6.9 mph - N/A   Scattered Clouds
10:50 AM 32.0 °F - 23.0 °F 69% 30.22 in 10.0 mi Calm Calm - N/A   Scattered Clouds
11:50 AM 33.8 °F - 23.0 °F 65% 30.22 in 10.0 mi Calm Calm - N/A   Mostly Cloudy
12:50 PM 35.6 °F 30.7 °F 26.6 °F 70% 30.15 in 10.0 mi ESE 5.8 mph - N/A   Mostly Cloudy
1:50 PM 39.2 °F 32.0 °F 26.6 °F 61% 30.15 in 10.0 mi South 11.5 mph - N/A   Scattered Clouds
2:50 PM 41.0 °F 38.0 °F 26.6 °F 57% 30.15 in 10.0 mi South 4.6 mph - N/A   Scattered Clouds
3:50 PM 42.8 °F 38.0 °F 28.4 °F 57% 30.10 in 10.0 mi South 8.1 mph - N/A   Mostly Cloudy
4:50 PM 41.0 °F 36.4 °F 26.6 °F 57% 30.10 in 10.0 mi South 6.9 mph - N/A   Mostly Cloudy
5:50 PM 39.2 °F 37.0 °F 26.6 °F 61% 30.10 in 10.0 mi SSE 3.5 mph - N/A   Mostly Cloudy
6:50 PM 37.4 °F 32.8 °F 26.6 °F 65% 30.07 in 10.0 mi SSE 5.8 mph - N/A   Mostly Cloudy
7:50 PM 35.6 °F 30.7 °F 26.6 °F 70% 30.08 in 10.0 mi SW 5.8 mph - N/A   Mostly Cloudy
8:55 PM 37.4 °F - 30.2 °F 75% 30.10 in 10.0 mi Calm Calm - 0.00 in   Partly Cloudy
9:15 PM 37.4 °F - 30.2 °F 75% 30.11 in 10.0 mi Calm Calm - 0.00 in   Clear
9:35 PM 37.4 °F - 30.2 °F 75% 30.10 in 10.0 mi Calm Calm - 0.00 in   Mostly Cloudy
9:55 PM 37.4 °F 33.8 °F 30.2 °F 75% 30.10 in 9.0 mi South 4.6 mph - 0.00 in   Mostly Cloudy
10:15 PM 35.6 °F 31.7 °F 32.0 °F 87% 30.10 in 10.0 mi South 4.6 mph - 0.00 in   Partly Cloudy
10:35 PM 35.6 °F 29.9 °F 32.0 °F 87% 30.10 in 10.0 mi South 6.9 mph - 0.00 in   Clear
10:55 PM 33.8 °F 27.0 °F 32.0 °F 93% 30.09 in 10.0 mi South 8.1 mph - 0.00 in   Clear
11:15 PM 33.8 °F 27.7 °F 32.0 °F 93% 30.09 in 10.0 mi South 6.9 mph - 0.00 in   Clear
11:35 PM 33.8 °F 27.0 °F 32.0 °F 93% 30.08 in 9.0 mi South 8.1 mph - 0.00 in   Clear
11:55 PM 32.0 °F 24.8 °F 32.0 °F 100% 30.07 in 10.0 mi South 8.1 mph - 0.00 in   Clear